Погода в Домажлице

Чехия     49°26′29″N   12°55′38″E
темп.,
°C
ветер,
м/с
пор.,
м/с
влажн.,
%
обл.,
%
осадки,
мм/ч
давл.,
гПа
погр.,
м
11 мая, вт
вт1123:00+15в3590100 0.0 100773
02:00+13св22935 0.0 100625
05:00+11зсз119398 0.0 100610
08:00+15з1286100 0.0 1006216
11:00+20юз23682 0.0 1005890
14:00+22с2260100 0.0 10031295
17:00+21зсз4470100 1.1 1002698
20:00+16з6108999 1.8 1003466
12 мая, ср
ср1223:00+11юз61096100 1.6 1008654
02:00+10зюз6139280 2.2 1009617
05:00+10юз3794100 0.1 1009503
08:00+11юз3695100 2.5 1010404
11:00+11зюз2695100 0.6 1010440
14:00+11з3795100 0.9 1009479
17:00+10зюз3698100 5.2 1008452
20:00+10зсз4897100 15.6 1008498
13 мая, чт
чт1323:00+10зсз4997100 7.1 1007479
02:00+9з41095100 9.3 1006582
05:00+9зсз61295100 4.6 1004755
08:00+9з4797100 10.1 1004490
11:00+9з61195100 4.9 1004801
14:00+8з61295100 7.2 1005772
17:00+7з61094100 3.6 1005835
20:00+7з61194100 5.5 1005705
14 мая, пт
пт1423:00+7з51096100 4.6 1006642
02:00+7з61294100 7.9 1006876
05:00+7з51196100 2.4 1006760
08:00+8з51095100 4.7 10071175
11:00+8зюз4895100 1.3 1008597
14:00+10з4788100 1.6 1008775
17:00+12зсз4680100 0.7 10081069
20:00+10зюз228668 1.3 100811
15 мая, сб
сб1523:00+7юз22935 0.0 101018
02:00+5юз32951 0.0 101129
05:00+5юз33958 0.0 101132
08:00+8юз349090 0.0 1011219
11:00+13зюз456764 0.1 10101264
14:00+16зюз3453100 0.1 10091963
17:00+14зюз567684 0.5 1009736
20:00+10юз1287100 1.4 100813